Tracking 18945 objects as of 21-Jan-2018
HD Live streaming from Space Station
objects crossing your sky now

THORAD AGENA D DEB

Track THORAD AGENA D DEB now!
10-day predictions


NORAD ID: 4935
Int'l Code: 1970-025GB
Perigee: 911.8 km
Apogee: 1,008.0 km
Inclination: 99.8 °
Period: 104.1 minutes
Semi major axis: 7330 km
RCS: 0.0346 m2 (small)
Launch date: April 8, 1970
Source: United States (US)
Launch site: AIR FORCE WESTERN TEST RANGE (AFWTR)

Note: This is SATELLITE DEBRIS
aabbcc
Your satellite tracking list
Your tracking list is empty




NASA's NSSDC Master Catalog

Two Line Element Set (TLE):
1  4935U 70025GB  18020.28384351 +.00000245 +00000-0 +26321-3 0  9998
2  4935 099.8355 309.4183 0065629 121.2359 036.5812 13.83144792392237
Source of the keplerian elements: AFSPC